Home > Weather > Farmington > Past weeks

Flag for USA Past Weather in Farmington, New Mexico, USA — Yesterday and Last 2 Weeks

Now
81 °F

Sunny.


Feels Like: 79 °F
Forecast: 54 / 82 °F
Wind: 12 mph from West

Location: Four Corners Regional Airport

Current Time: May 31, 2016 at 7:49:21 PM

Latest Report: May 31, 2016 at 6:53 PM


Visibility: 10 mi

Pressure: 29.74 "Hg (24.74 "Hg at 1617m altitude)

Humidity: 7%

Dew Point: 11 °F

Location of FarmingtonLocation

Past Weather in Farmington — Graph

°F

Farmington Temperature Yesterday

Maximum temperature yesterday: 82 °F (at 2:53 PM)
Minimum temperature yesterday: 45 °F (at 4:53 AM)
Average temperature yesterday: 66 °F

High & Low Weather Summary for the Past Weeks

 TemperatureHumidityPressure
High83 °F (May 29, 2:53 PM)100% (May 19, 7:53 AM)30.16 "Hg (May 19, 7:53 AM)
Low40 °F (May 19, 3:53 AM)4% (May 25, 4:53 PM)29.71 "Hg (May 23, 6:53 PM)
Average61 °F33%29.87 "Hg
* Reported May 16 6:53 PM — May 31 6:53 PM, Farmington, Weather by CustomWeather, © 2016

Note: Actual official high and low records may vary slightly from our data, if they occured in-between our weather recording intervals... More about our weather records

Advertising

Farmington Weather History for the Previous 24 Hours

Scroll right to see more
 ConditionsComfort  
Time TempWeatherWind HumidityBarometerVisibility
6:53 PM
Tue, May 31
81 °FSunny.12 mph7%29.74 "Hg10 mi
5:53 PM83 °FSunny.12 mph6%29.75 "Hg10 mi
4:53 PM83 °FSunny.N/A6%29.76 "Hg10 mi
3:53 PM82 °FSunny.8 mph7%29.78 "Hg10 mi
2:53 PM82 °FSunny.8 mph7%29.78 "Hg10 mi
1:53 PM81 °FSunny.N/A9%29.80 "Hg10 mi
12:53 PM79 °FSunny.8 mph11%29.83 "Hg10 mi
11:53 AM76 °FSunny.6 mph14%29.84 "Hg10 mi
10:53 AM73 °FSunny.7 mph16%29.85 "Hg10 mi
9:53 AM68 °FSunny.7 mph21%29.87 "Hg10 mi
8:53 AM60 °FSunny.3 mph28%29.90 "Hg10 mi
7:53 AM55 °FSunny.5 mph39%29.90 "Hg10 mi
6:53 AM48 °FClear.5 mph39%29.89 "Hg10 mi
5:53 AM44 °FClear.7 mph43%29.88 "Hg10 mi
4:53 AM44 °FClear.5 mph41%29.87 "Hg10 mi
3:53 AM47 °FClear.7 mph36%29.85 "Hg10 mi
2:53 AM51 °FClear.5 mph32%29.83 "Hg10 mi
1:53 AM53 °FClear.5 mph28%29.84 "Hg10 mi
12:53 AM55 °FClear.7 mph25%29.84 "Hg10 mi
11:53 PM
Mon, May 30
59 °FClear.6 mph22%29.83 "Hg10 mi
10:53 PM62 °FClear.7 mph19%29.84 "Hg10 mi
9:53 PM68 °FClear.8 mph15%29.80 "Hg10 mi
8:53 PM70 °FSunny.6 mph12%29.80 "Hg10 mi
8:01 PM76 °FSunny.18 mph11%29.96 "Hg10 mi
Weather by CustomWeather, © 2016

See weather overviewHow to use our weather pages